[Iaude] MPEC T118: 2023 TV3 [a=1.81,e=0.55,i=8.0,H=27.6]

mpec at marsden.cfa.harvard.edu mpec at marsden.cfa.harvard.edu
Mon Oct 9 05:02:45 EDT 2023


M.P.E.C. 2023-T118                              Issued 2023 October 9, 09:01 UT

     The Minor Planet Electronic Circulars contain information on unusual
         minor planets, routine data on comets and natural satellites,
         and occasional editorial announcements.  They are published
    on behalf of Division F of the International Astronomical Union by the
          Minor Planet Center, Smithsonian Astrophysical Observatory,
                          Cambridge, MA 02138, U.S.A.
			  
             Prepared using the Tamkin Foundation Computer Network

                              MPC at CFA.HARVARD.EDU
            URL https://www.minorplanetcenter.net/    ISSN 1523-6714

                                    2023 TV3                                    


Observations:
     K23T03V* C2023 10 07.39978500 46 30.476-16 55 25.96         21.09wXET118F51
     K23T03V  C2023 10 07.41134600 46 29.235-16 55 33.76         21.66wXET118F51
     K23T03V  C2023 10 07.42291700 46 28.017-16 55 41.07         21.43wXET118F51
     K23T03V  C2023 10 07.43449500 46 26.781-16 55 48.14         21.38wXET118F51
     K23T03V KC2023 10 08.26024000 46 12.652-17 06 14.15         21.13GVET118I52
     K23T03V KC2023 10 08.26378200 46 12.212-17 06 16.74         21.39GVET118I52
     K23T03V KC2023 10 08.26731500 46 11.816-17 06 20.56         21.26GVET118I52
     K23T03V KC2023 10 08.27084300 46 11.374-17 06 23.62         20.94GVET118I52
     K23T03V  C2023 10 08.39403200 46 08.581-17 07 30.44         21.58GVET118F51
     K23T03V  C2023 10 08.39484700 46 08.481-17 07 31.24         21.65GVET118F51
     K23T03V KC2023 10 09.19304600 45 48.751-17 22 06.60         20.75GVET118I52
     K23T03V KC2023 10 09.19902800 45 47.894-17 22 15.96         20.57GVET118I52
     K23T03V KC2023 10 09.20498900 45 47.034-17 22 25.28         20.55GVET118I52
     K23T03V KC2023 10 09.21095900 45 46.188-17 22 34.64         20.73GVET118I52

Observer details:
F51 Pan-STARRS 1, Haleakala.  Observers J. Bulger, T. Lowe, P. Minguez, A.
    Schultz, I. Smith, K. Chambers.  Measurers K. Chambers, T. de Boer, J.
    Bulger, J. Fairlamb, H. Gao, M. Huber, C.-C. Lin, T. Lowe, E. Magnier, P.
    Minguez, Y. Ramanjooloo, A. Schultz, I. Smith, R. Wainscoat, R. Weryk, S.
    Chastel.  1.8-m Ritchey-Chretien + CCD.
I52 Steward Observatory, Mt. Lemmon Station.  Observer J. B. Fazekas.
    Measurers E. C. Beshore, D. Fay, J. B. Fazekas, D. C. Fuls, A. R. Gibbs,
    A. D. Grauer, H. Groeller, J. K. Hogan, R. A. Kowalski, S. M. Larson, G.
    J. Leonard, D. Rankin, R. L. Seaman, F. C. Shelly, K. W. Wierzchos.  1.0-m
    prime focus + CCD.

Orbital elements:
2023 TV3                                                 Earth MOID = 0.0004 AU
Epoch 2023 Sept. 13.0 TT = JDT 2460200.5                Bell                    
M 330.56346              (2000.0)            P               Q                  
n   0.40602520     Peri.   62.71553     +0.15138579     -0.98745806             
a   1.8062065      Node    18.73905     +0.85042221     +0.10699624             
e   0.5547093      Incl.    8.01989     +0.50384959     +0.11609644             
P   2.43           H   27.62          G   0.15           U   9                  
Residuals in seconds of arc
231007 F51  0.2+  0.1+    231008 I52  0.2-  0.6+    231009 I52  0.0   0.2-
231007 F51  0.1-  0.1-    231008 I52  0.2+  0.0     231009 I52  0.1-  0.0
231007 F51  0.0   0.1-    231008 I52  0.1-  0.1+    231009 I52  0.1-  0.0
231007 F51  0.0   0.2-    231008 F51  0.1-  0.1-    231009 I52  0.4+  0.0
231008 I52  0.0   0.0     231008 F51  0.0   0.1-

Ephemeris:
2023 TV3                 a,e,i = 1.81, 0.55, 8                   q = 0.8043
Date    TT    R. A. (2000) Decl.     Delta      r    Elong.  Phase     V
2023 09 09    00 43 14.2 -14 26 11   0.2896  1.2756   154.9    19.6    26.4
...
2023 09 24    00 46 54.7 -15 40 44   0.1521  1.1480   160.6    16.9    24.7
...
2023 10 02    00 47 10.9 -16 19 07   0.08509 1.0814   160.0    18.5    23.4
...
2023 10 08    00 46 16.0 -16 59 45   0.03641 1.0331   157.4    21.8    21.6
2023 10 09    00 45 45.6 -17 14 28   0.02838 1.0253   156.7    22.7    21.0
2023 10 10    00 44 50.8 -17 39 22   0.02036 1.0175   155.7    23.8    20.3
...
2023 10 16    12 44 50.2 +17 38 53   0.02777 0.9727    27.8   151.5    28.5
...
2023 10 24    12 43 53.0 +17 57 03   0.09247 0.9195    33.8   143.0    29.5
...
2023 11 08    12 49 48.0 +15 53 34   0.2194  0.8463    43.8   125.9    29.3

M. P. C. Staff               (C) Copyright 2023 MPC           M.P.E.C. 2023-T118





More information about the Iaude mailing list